Preview of NWS' New Version of Forecast
This preview is not operational and should not be used for support decisions.

Regional Weather Roundup (RWR)

Issued by National Weather Service (NWS)

                            
000
ASUS44 KMEG 212200
RWRTN 
TENNESSEE HOURLY STATE WEATHER ROUNDUP
NATIONAL WEATHER SERVICE MEMPHIS TN
500 PM CDT SAT SEP 21 2019

TNZ002-004-019-021-049-052-054-088>092-212300-
WEST TENNESSEE
  
CITY           SKY/WX    TMP DP  RH WIND       PRES   REMARKS
MEMPHIS INTL   FAIR      85  59  41 S10       30.12S                  
NWS MEMPHIS      N/A     91 N/A N/A MISG        N/A                   
JACKSON        FAIR      89  58  34 S8        30.14F                  
DYERSBURG      FAIR      88  60  38 SW5       30.13S                  
$$

TNZ008-025-027-028-033-062-065-066-212300-
NORTH MIDDLE TENNESSEE
  
CITY           SKY/WX    TMP DP  RH WIND       PRES   REMARKS
NASHVILLE      FAIR      90  49  24 S10G16    30.16S                  
CLARKSVILLE    FAIR      89  55  31 S8        30.14S                  
SMYRNA         FAIR      89  55  31 S7        30.16F                  
CROSSVILLE     FAIR      81  54  39 SE7       30.24F                  
$$

TNZ061-075-076-078-094-096-097-212300-
SOUTH MIDDLE TENNESSEE
  
CITY           SKY/WX    TMP DP  RH WIND       PRES   REMARKS
$$

TNZ017-018-042-046-047-212300-
NORTHEAST TENNESSEE
  
CITY           SKY/WX    TMP DP  RH WIND       PRES   REMARKS
TRI CITIES     FAIR      87  57  35 VRB3      30.22F                  
$$

TNZ012-013-036-069-073-074-212300-
CENTRAL EAST TENNESSEE
  
CITY           SKY/WX    TMP DP  RH WIND       PRES   REMARKS
KNOXVILLE      FAIR      86  56  35 NW6       30.18F                  
OAK RIDGE      FAIR      87  57  35 CALM      30.20F                  
$$

TNZ083-085-099-212300-
SOUTHEAST TENNESSEE
  
CITY           SKY/WX    TMP DP  RH WIND       PRES   REMARKS
CHATTANOOGA    FAIR      88  55  32 VRB5      30.18F                  
$$

SKY/WX REPORTED AS FAIR MEANS FEW OR NO CLOUDS BELOW
12 THOUSAND FEET.